This demonstration page uses our WeatherBlox Daily Observations layout. Learn more.

Left ArrowRight Arrow

44.8408, -93.29828

Hourly Observations for June 7, 2015

Temp ( °F °C ) Dew Point ( °F °C ) Humidity (%) Winds ( mph kmh ) Pressure ( in mb ) Visibility ( mi km ) Precip ( " mm )
12:06 am 00:06 Cloudy with Nearby Thunderstorms 66 19 64 18 94 94 SE 15 24 29.68 1005 1 2 0.00 0.00
12:09 am 00:09 Cloudy with Nearby Thunderstorms 67 19.4 65 18.3 93 93 SE 17 28 29.68 1005 6 10 0.50 12.70
12:19 am 00:19 Cloudy 68 20 65 18.3 90 90 SSW 9 15 29.68 1005 9 14 0.50 12.70
12:26 am 00:26 Cloudy 68 20 64 18 88 88 SSW 10 17 29.68 1005 9 14 0.00 0.00
12:53 am 00:53 Cloudy with Rain 69 20.6 65 18.3 87 87 SSE 12 19 29.66 1004 8 13 0.53 13.46
1:53 am 01:53 Mostly Cloudy 68 20 65 18.3 90 90 NNW 8 13 29.68 1005 10 16 0.02 0.51
2:40 am 02:40 Cloudy 66 19 66 19 100 100 ENE 8 13 29.68 1005 10 16 0.00 0.00
2:53 am 02:53 Cloudy 67 19.4 65 18.3 93 93 E 9 15 29.65 1004 9 14 0.00 0.00
3:32 am 03:32 Partly Cloudy 66 19 64 18 94 94 VRB 3 6 29.62 1003 8 13 0.00 0.00
3:53 am 03:53 Partly Cloudy 67 19.4 65 18.3 93 93 SSE 8 13 29.62 1003 7 11 0.00 0.00
4:53 am 04:53 Mostly Cloudy 67 19.4 65 18.3 93 93 S 5 7 29.60 1003 8 13 0.00 0.00
5:20 am 05:20 Cloudy 68 20 66 19 94 94 SSW 3 6 29.59 1002 7 11 0.00 0.00
5:53 am 05:53 Cloudy 68 20 66 18.9 93 93 SW 5 7 29.62 1003 7 11 0.04 1.02
6:28 am 06:28 Mostly Cloudy 68 20 66 18.9 93 93 WSW 7 11 29.59 1002 9 14 0.00 0.00
6:53 am 06:53 Partly Cloudy 68 20 66 18.9 93 93 WNW 10 17 29.62 1003 10 16 0.00 0.00
7:11 am 07:11 Mostly Cloudy 68 20 65 18.3 90 90 WNW 13 20 29.62 1003 10 16 0.00 0.00
7:53 am 07:53 Mostly Cloudy 68 20 64 17.8 87 87 NW 10 17 29.63 1003 10 16 0.00 0.00
8:53 am 08:53 Mostly Cloudy 70 21.1 63 17.2 79 79 WNW 13 20 29.65 1004 10 16 0.00 0.00
9:23 am 09:23 Partly Cloudy 71 21.7 61 16.1 71 71 NW 13 20 29.65 1004 10 16 0.00 0.00
9:53 am 09:53 Mostly Cloudy 72 22.2 60 15.6 66 66 NW 13 20 29.66 1004 10 16 0.00 0.00
10:53 am 10:53 Mostly Cloudy 75 23.9 61 16.1 62 62 WNW 14 22 29.67 1005 10 16 0.00 0.00
11:53 am 11:53 Partly Cloudy 76 24.4 62 16.7 62 62 WNW 12 19 29.68 1005 10 16 0.00 0.00
12:53 pm 12:53 Mostly Cloudy 78 25.6 62 16.7 58 58 NW 15 24 29.68 1005 10 16 0.00 0.00
1:53 pm 13:53 Mostly Cloudy 81 27.2 61 16.1 51 51 WNW 16 26 29.67 1005 10 16 0.00 0.00
2:53 pm 14:53 Mostly Cloudy 81 27.2 60 15.6 49 49 W 14 22 29.68 1005 10 16 0.00 0.00
3:53 pm 15:53 Mostly Cloudy 82 27.8 57 13.9 42 42 W 12 19 29.66 1005 10 16 0.00 0.00
4:53 pm 16:53 Mostly Cloudy 81 27.2 56 13.3 42 42 W 9 15 29.64 1004 10 16 0.00 0.00
5:53 pm 17:53 Mostly Cloudy 82 27.8 57 13.9 42 42 W 8 13 29.64 1004 10 16 0.00 0.00
6:24 pm 18:24 Cloudy with Nearby Thunderstorms 81 27.2 57 13.9 44 44 VRB 6 9 29.62 1003 10 16 0.00 0.00
6:53 pm 18:53 Cloudy with Nearby Thunderstorms 76 24.4 57 13.9 52 52 SSW 13 20 29.64 1004 10 16 0.00 0.00
7:12 pm 19:12 Cloudy 72 22.2 59 15 64 64 SSW 12 19 29.65 1004 10 16 0.00 0.00
7:53 pm 19:53 Cloudy 71 21.7 59 15 66 66 SSW 13 20 29.67 1005 10 16 0.00 0.00
8:53 pm 20:53 Mostly Cloudy 70 21.1 60 15.6 71 71 SW 8 13 29.66 1005 10 16 0.00 0.00
9:53 pm 21:53 Mostly Cloudy 70 21.1 62 16.7 76 76 SW 12 19 29.66 1004 10 16 0.00 0.00
10:53 pm 22:53 Mostly Cloudy 71 21.7 56 13.3 59 59 WSW 9 15 29.66 1004 10 16 0.00 0.00
11:53 pm 23:53 Mostly Cloudy 68 20 51 10.6 55 55 N 6 9 29.69 1005 10 16 0.00 0.00

Powered by AerisWeather